[[{"header":{"parameterUnit":"m.s-1","parameterCategory":1,"la1":30.2991,"la2":30.254,"lo1":-89.0895,"lo2":-89.0444,"dy":0.0017,"dx":0.0017,"nx":28,"ny":28,"refTime":"2023-09-26T21:00:00:Z","depth":0,"parameterNumber":2,"parameterNumberName":"U-component_of_WINDS"},"data":[0,0,0,0,0,0,0,0,0,0,0,0,0,0,0,0,0,0,0,0,0,0,0,0,0,0,0,0,0,0,0,0,0,0,0,0,0,0,0,0,0,0,0,0,0,0,0,0,0,0,0,0,0,0,0,0,0,0,-5.0133,-5.0136,0,-5.0476,-5.048,-5.0484,-5.0495,-5.0491,-5.0487,-5.0483,-5.0843,-5.0856,-5.0869,0,0,0,0,0,0,0,0,0,0,0,0,0,-4.9497,-4.9509,-5.0132,-5.0137,-5.0141,-5.0475,-5.048,-5.0485,-5.0496,-5.0491,-5.0486,-5.0481,-5.0838,-5.0854,-5.0871,0,0,0,0,0,0,0,0,0,0,0,0,0,-4.98,-4.9513,-5.0132,-5.0187,-5.0195,-5.0474,-5.048,-5.0486,-5.0497,-5.0491,-5.0485,-5.0479,-5.0833,-5.0853,-5.0873,-5.1123,0,0,-5.0935,-5.0943,0,0,0,0,0,0,0,0,-4.9783,-4.9824,-5.0174,-5.0183,-5.0193,-5.0436,-5.0388,-5.07,-5.0499,-5.0383,-5.0483,-5.0476,-5.0713,-5.0743,-5.0821,-5.114,-5.1155,-5.0936,-5.0949,-5.0957,-5.0963,0,0,0,0,0,0,0,-4.9762,-4.9809,-5.0269,-5.018,-5.0191,-5.0198,-5.0234,-5.0447,-5.0579,-5.0392,-5.0394,-5.0434,-5.0717,-5.0802,-5.083,-5.1161,-5.0936,-5.0954,-5.0966,-5.0974,-5.1708,-5.1715,0,0,0,0,0,0,-4.9729,-4.9791,-5.0258,-5.0279,-4.9968,-5.0214,-5.0255,-5.0365,-5.0577,-5.0603,-5.0439,-5.0433,-5.077,-5.0806,-5.0843,-5.1154,-5.0957,-5.0976,-5.0988,-5.1701,-5.171,-5.1718,0,0,0,0,0,0,-4.9715,-4.977,-5.0244,-5.0036,-5.0097,-5.0232,-5.0355,-5.0375,-5.0459,-5.0612,-5.0636,-5.05,-5.0767,-5.0814,-5.1054,-5.1166,-5.0985,-5.1004,-5.1692,-5.1703,-5.1714,-5.1775,0,0,0,0,0,0,-4.9697,-4.9765,-4.9859,-5.0038,-5.0108,-5.0446,-5.0362,-5.0386,-5.0493,-5.0489,-5.0676,-5.0701,-5.0766,-5.1024,-5.1074,-5.1191,-5.1019,-5.1683,-5.1697,-5.171,-5.1764,-5.1787,-5.1807,0,0,0,0,0,-4.9674,-4.9863,-4.9864,-4.992,-5.0227,-5.0453,-5.0493,-5.0561,-5.0502,-5.06,-5.0698,-5.0695,-5.1145,-5.1048,-5.1105,-5.1229,-5.1676,-5.1693,-5.1709,-5.1754,-5.1782,-5.1806,0,0,0,0,0,0,-4.9696,-4.9887,-4.989,-5.0142,-5.0281,-5.0454,-5.0579,-5.0588,-5.0748,-5.0738,-5.0817,-5.086,-5.1099,-5.1188,-5.1077,-5.1486,-5.1404,-5.1433,-5.1419,-5.1447,-5.1468,-5.1443,-5.1036,0,0,0,0,0,-4.973,-4.9894,-5.0053,-5.0261,-5.033,-5.0442,-5.0543,-5.0583,-5.0732,-5.0791,-5.0907,-5.1054,-5.1229,-5.1342,-5.1511,-5.1776,-5.182,-5.189,-5.1911,-5.1928,-5.1953,-5.2105,-5.214,-5.1772,-5.1772,-5.1772,0,0,-4.9802,-4.9927,-5.0026,-5.0268,-5.038,-5.0553,-5.0492,-5.0675,-5.0806,-5.082,-5.1054,-5.1145,-5.1314,-5.1568,-5.1686,-5.165,-5.2065,-5.1949,-5.1962,-5.1978,-5.2126,-5.2161,-5.2192,-5.1783,-5.1781,-5.178,0,0,-5.0022,-5.0131,-5.0317,-5.0432,-5.0602,-5.0676,-5.0721,-5.0894,-5.0955,-5.119,-5.1206,-5.1363,-5.1661,-5.1783,-5.1884,-5.2154,-5.2159,-5.2207,-5.232,-5.2468,-5.2497,-5.2523,-5.2624,-5.2659,-5.223,-5.2231,-5.2231,0,-5.0091,-5.0348,-5.0413,-5.0598,-5.0707,-5.0726,-5.0918,-5.1027,-5.1245,-5.1321,-5.1276,-5.1654,-5.1769,-5.2054,-5.212,-5.22,-5.2258,-5.2187,-5.2486,-5.2513,-5.2539,-5.2636,-5.2674,-5.2236,-5.2235,-5.2235,-5.2234,0,-5.0427,-5.0606,-5.0736,-5.0945,-5.1068,-5.1256,-5.1353,-5.1471,-5.1501,-5.1581,-5.1824,-5.1963,-5.2163,-5.2233,-5.2264,-5.2525,-5.2498,-5.2469,-5.2389,-5.2578,-5.2671,-5.2708,-5.2243,-5.2241,-5.224,-5.2238,0,0,-5.067,-5.0914,-5.0961,-5.1058,-5.1249,-5.1391,-5.1581,-5.1775,-5.1876,-5.2027,-5.2192,-5.2445,-5.2421,-5.2536,-5.2581,-5.271,-5.2922,-5.2667,-5.2672,-5.2713,-5.3224,-5.3247,-5.3288,-5.2925,-5.2932,-5.2938,-5.3211,0,-5.0914,-5.1251,-5.1317,-5.1611,-5.178,-5.1802,-5.1969,-5.2107,-5.2188,-5.2346,-5.2436,-5.2616,-5.2568,-5.2638,-5.2766,-5.2868,-5.3026,-5.2849,-5.3085,-5.3092,-5.3045,-5.3336,-5.3361,-5.3611,-5.3247,-5.3253,-5.3258,0,-5.1244,-5.1401,-5.1712,-5.1884,-5.1958,-5.2106,-5.2291,-5.244,-5.2599,-5.2649,-5.2779,-5.2811,-5.3016,-5.2924,-5.321,-5.3088,-5.3189,-5.3254,-5.3266,-5.3293,-5.3188,-5.3375,-5.3692,-5.3731,-5.3315,-5.331,-5.3306,0,-5.1395,-5.1685,-5.191,-5.1992,-5.2197,-5.2302,-5.2393,-5.2545,-5.2659,-5.2822,-5.2897,-5.3082,-5.3184,-5.3329,-5.3413,-5.3337,-5.3694,-5.3608,-5.3746,-5.3744,-5.3822,-5.3817,-5.4163,-5.3881,-5.388,-5.3879,-5.3878,0,-5.1663,-5.1853,-5.1981,-5.212,-5.2336,-5.2411,-5.2624,-5.2715,-5.285,-5.301,-5.3041,-5.3191,-5.3291,-5.3457,-5.3523,-5.3753,-5.3798,-5.3848,-5.3864,-5.3847,-5.3842,-5.3916,-5.3903,-5.3889,-5.3887,-5.3885,-5.3883,0,-5.1869,-5.1962,-5.2209,-5.2384,-5.2432,-5.2584,-5.2736,-5.2874,-5.2955,-5.3158,-5.321,-5.3339,-5.3536,-5.3633,-5.3878,-5.3924,-5.4185,-5.4188,-5.413,-5.4138,-5.4271,-5.4259,-5.4681,-5.4742,-5.4415,-5.4418,-5.442,0,-5.2035,-5.2182,-5.2373,-5.2481,-5.2574,-5.2748,-5.2864,-5.2946,-5.3066,-5.326,-5.3376,-5.3574,-5.3737,-5.4052,-5.4171,-5.436,-5.4371,-5.4505,-5.4399,-5.4379,-5.4378,-5.437,-5.4387,-5.4525,-5.4528,-5.4531,-5.4533,0,-5.2322,-5.2361,-5.2525,-5.2708,-5.2846,-5.2994,-5.314,-5.3228,-5.3334,-5.3468,-5.3669,-5.3795,-5.4046,-5.4245,-5.4443,-5.4541,-5.4558,-5.4565,-5.4608,-5.4594,-5.4556,-5.4583,-5.4186,-5.4556,-5.4553,-5.4552,-5.4551,-5.455,-5.2517,-5.265,-5.2806,-5.299,-5.3108,-5.3245,-5.3384,-5.3483,-5.3651,-5.386,-5.3899,-5.4114,-5.4274,-5.4541,-5.4646,-5.4819,-5.4789,-5.485,-5.4866,-5.4881,-5.489,-5.4526,-5.4855,-5.4854,-5.4854,-5.4853,-5.4853,0,-5.2808,-5.291,-5.3078,-5.3281,-5.3427,-5.3426,-5.3589,-5.3713,-5.39,-5.4046,-5.4206,-5.444,-5.4634,-5.4768,-5.4966,-5.5078,-5.5091,-5.5128,-5.5122,-5.5146,-5.4902,-5.4848,-5.5114,-5.5114,-5.5114,-5.5114,-5.5114,-5.5114,-5.2977,-5.3204,-5.3263,-5.3551,-5.3653,-5.3861,-5.3955,-5.4084,-5.4201,-5.446,-5.462,-5.4705,-5.4849,-5.5058,-5.5237,-5.5272,-5.5346,-5.5384,-5.5419,-5.519,-5.5162,-5.5136,-5.5085,-5.5398,-5.5398,-5.5649,-5.5651,-5.5653]},{"header":{"parameterUnit":"m.s-1","parameterCategory":1,"la1":30.2991,"la2":30.254,"lo1":-89.0895,"lo2":-89.0444,"dy":0.0017,"dx":0.0017,"nx":28,"ny":28,"refTime":"2023-09-26T21:00:00:Z","depth":0,"parameterNumber":3,"parameterNumberName":"V-component_of_WINDS"},"data":[0,0,0,0,0,0,0,0,0,0,0,0,0,0,0,0,0,0,0,0,0,0,0,0,0,0,0,0,0,0,0,0,0,0,0,0,0,0,0,0,0,0,0,0,0,0,0,0,0,0,0,0,0,0,0,0,0,0,0.2423,0.2419,0,0.2078,0.2074,0.207,0.1894,0.1894,0.1894,0.1894,0.1531,0.1522,0.1512,0,0,0,0,0,0,0,0,0,0,0,0,0,0.2919,0.2911,0.2423,0.2419,0.2415,0.2079,0.2074,0.2069,0.1894,0.1894,0.1894,0.1894,0.1534,0.1523,0.1511,0,0,0,0,0,0,0,0,0,0,0,0,0,0.2652,0.2908,0.2424,0.2287,0.2271,0.208,0.2074,0.2068,0.1894,0.1894,0.1894,0.1894,0.1538,0.1524,0.151,0.1425,0,0,0.1466,0.146,0,0,0,0,0,0,0,0,0.2667,0.2634,0.2311,0.2296,0.2278,0.2029,0.2115,0.1852,0.1894,0.2037,0.1894,0.1894,0.1696,0.1669,0.1604,0.1408,0.1392,0.1465,0.1456,0.145,0.1446,0,0,0,0,0,0,0,0.2686,0.2647,0.2286,0.2307,0.2287,0.2239,0.2201,0.2065,0.1871,0.2025,0.2011,0.1973,0.1687,0.1618,0.1594,0.1387,0.1465,0.1452,0.1443,0.1438,0.11,0.1099,0,0,0,0,0,0,0.2728,0.2664,0.2297,0.2276,0.2476,0.223,0.2188,0.2109,0.1873,0.1837,0.1974,0.1966,0.1643,0.1611,0.1581,0.1463,0.145,0.1436,0.1428,0.11,0.11,0.1099,0,0,0,0,0,0,0.2739,0.2697,0.2311,0.2466,0.2413,0.2222,0.2135,0.2102,0.2034,0.1834,0.1798,0.194,0.1642,0.1601,0.1465,0.1448,0.143,0.1417,0.1101,0.11,0.1099,0.123,0,0,0,0,0,0,0.2754,0.2702,0.2671,0.2467,0.2406,0.2205,0.2134,0.2096,0.2011,0.1998,0.1793,0.1759,0.1638,0.1487,0.1451,0.1428,0.1406,0.1101,0.11,0.11,0.1226,0.1234,0.1241,0,0,0,0,0,0.2773,0.272,0.267,0.2627,0.2363,0.2204,0.2169,0.2034,0.2011,0.1975,0.1846,0.1765,0.1457,0.1475,0.1432,0.1405,0.1101,0.1101,0.11,0.1223,0.1232,0.124,0,0,0,0,0,0,0.2923,0.2691,0.2633,0.2513,0.238,0.2175,0.2126,0.2049,0.1917,0.191,0.1746,0.1701,0.1579,0.1478,0.1503,0.1309,0.1271,0.1261,0.1379,0.1386,0.1394,0.1419,0.1394,0,0,0,0,0,0.2943,0.2837,0.2638,0.2551,0.2488,0.232,0.2245,0.2153,0.2007,0.1949,0.181,0.1669,0.1539,0.1458,0.1328,0.1212,0.1162,0.1172,0.1179,0.1186,0.1179,0.1106,0.1107,0.1096,0.1096,0.1096,0,0,0.2982,0.2842,0.2784,0.2578,0.2464,0.2354,0.2273,0.216,0.2075,0.193,0.1793,0.1687,0.1518,0.1391,0.1328,0.1303,0.1171,0.1185,0.1192,0.118,0.1105,0.1106,0.1107,0.1096,0.1096,0.1096,0,0,0.2996,0.2881,0.2795,0.2683,0.2512,0.24,0.238,0.2186,0.2111,0.1972,0.186,0.1755,0.1537,0.142,0.1332,0.1302,0.122,0.1264,0.13,0.1231,0.1232,0.1232,0.1217,0.1215,0.1258,0.1258,0.1258,0,0.3064,0.2897,0.2759,0.2653,0.2564,0.2431,0.234,0.2237,0.2032,0.1971,0.1948,0.167,0.1547,0.1389,0.1382,0.1316,0.1284,0.1285,0.1244,0.1242,0.124,0.1224,0.122,0.1264,0.1263,0.1263,0.1262,0,0.2988,0.2874,0.2824,0.2633,0.2538,0.244,0.2284,0.2204,0.212,0.201,0.1868,0.1716,0.1552,0.1508,0.1424,0.1337,0.1327,0.1276,0.1233,0.1249,0.1232,0.1225,0.1273,0.1271,0.1269,0.1267,0,0,0.3085,0.282,0.2803,0.2714,0.2516,0.2422,0.2317,0.216,0.2093,0.1956,0.186,0.1679,0.163,0.153,0.1432,0.1372,0.1354,0.1327,0.1321,0.1335,0.1244,0.1282,0.1278,0.13,0.1298,0.1297,0.1257,0,0.3069,0.2877,0.2749,0.2606,0.2496,0.2368,0.2275,0.2142,0.2036,0.1925,0.1805,0.1679,0.1626,0.1564,0.15,0.137,0.1333,0.1371,0.1205,0.1201,0.1249,0.1269,0.1308,0.1278,0.125,0.1249,0.1248,0,0.3023,0.2893,0.274,0.2552,0.2501,0.2421,0.2265,0.2162,0.2006,0.1933,0.1823,0.1723,0.1602,0.1573,0.1401,0.143,0.1355,0.1281,0.1276,0.1253,0.1224,0.1243,0.1266,0.1261,0.1236,0.1237,0.1238,0,0.3106,0.2891,0.2771,0.2699,0.2478,0.2424,0.2329,0.2174,0.2087,0.1949,0.189,0.1741,0.1658,0.1542,0.1403,0.1395,0.1244,0.1204,0.1176,0.118,0.1148,0.1151,0.1156,0.1105,0.1105,0.1105,0.1106,0,0.3098,0.3009,0.2805,0.2731,0.2626,0.2479,0.2377,0.2271,0.2134,0.2034,0.1913,0.1821,0.1645,0.153,0.142,0.1293,0.1257,0.1191,0.1163,0.12,0.1209,0.1146,0.1144,0.1104,0.1104,0.1105,0.1105,0,0.3172,0.3032,0.2892,0.2696,0.2644,0.2575,0.2404,0.2325,0.2213,0.2088,0.205,0.1873,0.1731,0.1582,0.1389,0.1315,0.1192,0.1153,0.1245,0.1228,0.1208,0.1211,0.1171,0.1156,0.112,0.112,0.1121,0,0.3175,0.3103,0.29,0.2826,0.2734,0.2617,0.2528,0.238,0.2291,0.2109,0.2051,0.1901,0.1773,0.1553,0.1404,0.1256,0.1211,0.1207,0.1187,0.1227,0.1206,0.1212,0.1202,0.1213,0.1214,0.1215,0.1215,0,0.3194,0.3129,0.3007,0.2861,0.276,0.2637,0.2509,0.2454,0.228,0.2186,0.2042,0.1943,0.1747,0.1598,0.1432,0.1329,0.1242,0.1224,0.1208,0.1245,0.13,0.1267,0.126,0.1224,0.1223,0.1223,0.1222,0.1222,0.3229,0.3159,0.3005,0.2872,0.2761,0.2645,0.2561,0.2439,0.2318,0.2149,0.2068,0.1923,0.1766,0.1534,0.1434,0.1315,0.1289,0.1269,0.1263,0.1259,0.1268,0.1322,0.1284,0.1284,0.1284,0.1283,0.1283,0,0.3239,0.3134,0.3015,0.2841,0.2736,0.2668,0.2522,0.2438,0.2313,0.2177,0.2054,0.1887,0.1742,0.1584,0.1428,0.1364,0.132,0.1328,0.1329,0.1306,0.1301,0.1328,0.1366,0.1366,0.1366,0.1366,0.1366,0.1366,0.3232,0.3109,0.3026,0.2844,0.2738,0.2598,0.252,0.241,0.23,0.2121,0.2001,0.19,0.1752,0.1586,0.1449,0.1405,0.1352,0.1372,0.1316,0.1314,0.1307,0.1301,0.1325,0.1362,0.1362,0.1331,0.1331,0.1331]}]]